Year,Month,Day,Hour,Minute,Value (Times are PST for temperature in C)
2008,09,16,00,00,15.30
2008,09,16,00,01,15.30
2008,09,16,00,02,15.30
2008,09,16,00,03,15.30
2008,09,16,00,04,15.30
2008,09,16,00,05,15.20
2008,09,16,00,06,15.20
2008,09,16,00,07,15.10
2008,09,16,00,08,15.00
2008,09,16,00,09,14.90
2008,09,16,00,10,14.90
2008,09,16,00,11,14.80
2008,09,16,00,12,14.80
2008,09,16,00,13,14.70
2008,09,16,00,14,14.60
2008,09,16,00,15,14.60
2008,09,16,00,16,14.60
2008,09,16,00,17,14.50
2008,09,16,00,18,14.50
2008,09,16,00,19,14.40
2008,09,16,00,20,14.40
2008,09,16,00,21,14.40
2008,09,16,00,22,14.40
2008,09,16,00,23,14.40
2008,09,16,00,24,14.50
2008,09,16,00,25,14.50
2008,09,16,00,26,14.50
2008,09,16,00,27,14.60
2008,09,16,00,28,14.60
2008,09,16,00,29,14.60
2008,09,16,00,30,14.60
2008,09,16,00,31,14.60
2008,09,16,00,32,14.50
2008,09,16,00,33,14.50
2008,09,16,00,34,14.40
2008,09,16,00,35,14.40
2008,09,16,00,36,14.30
2008,09,16,00,37,14.20
2008,09,16,00,38,14.20
2008,09,16,00,39,14.20
2008,09,16,00,40,14.20
2008,09,16,00,41,14.20
2008,09,16,00,42,14.20
2008,09,16,00,43,14.20
2008,09,16,00,44,14.20
2008,09,16,00,45,14.20
2008,09,16,00,46,14.20
2008,09,16,00,47,14.20
2008,09,16,00,48,14.20
2008,09,16,00,49,14.20
2008,09,16,00,50,14.20
2008,09,16,00,51,14.20
2008,09,16,00,52,14.20
2008,09,16,00,53,14.10
2008,09,16,00,54,14.10
2008,09,16,00,55,14.10
2008,09,16,00,56,14.10
2008,09,16,00,57,14.10
2008,09,16,00,58,14.10
2008,09,16,00,59,14.10
2008,09,16,01,00,14.10
2008,09,16,01,01,14.10
2008,09,16,01,02,14.00
2008,09,16,01,03,14.00
2008,09,16,01,04,14.00
2008,09,16,01,05,14.00
2008,09,16,01,06,14.10
2008,09,16,01,07,14.10
2008,09,16,01,08,14.10
2008,09,16,01,09,14.10
2008,09,16,01,10,14.20
2008,09,16,01,11,14.20
2008,09,16,01,12,14.10
2008,09,16,01,13,14.10
2008,09,16,01,14,14.10
2008,09,16,01,15,14.00
2008,09,16,01,16,14.00
2008,09,16,01,17,14.00
2008,09,16,01,18,14.00
2008,09,16,01,19,14.00
2008,09,16,01,20,13.90
2008,09,16,01,21,13.90
2008,09,16,01,22,13.90
2008,09,16,01,23,13.90
2008,09,16,01,24,14.00
2008,09,16,01,25,14.00
2008,09,16,01,26,14.00
2008,09,16,01,27,14.00
2008,09,16,01,28,13.90
2008,09,16,01,29,13.90
2008,09,16,01,30,13.80
2008,09,16,01,31,13.80
2008,09,16,01,32,13.80
2008,09,16,01,33,13.80
2008,09,16,01,34,13.80
2008,09,16,01,35,13.70
2008,09,16,01,36,13.70
2008,09,16,01,37,13.70
2008,09,16,01,38,13.70
2008,09,16,01,39,13.70
2008,09,16,01,40,13.70
2008,09,16,01,41,13.70
2008,09,16,01,42,13.70
2008,09,16,01,43,13.70
2008,09,16,01,44,13.60
2008,09,16,01,45,13.60
2008,09,16,01,46,13.60
2008,09,16,01,47,13.60
2008,09,16,01,48,13.50
2008,09,16,01,49,13.50
2008,09,16,01,50,13.50
2008,09,16,01,51,13.40
2008,09,16,01,52,13.40
2008,09,16,01,53,13.40
2008,09,16,01,54,13.40
2008,09,16,01,55,13.40
2008,09,16,01,56,13.40
2008,09,16,01,57,13.50
2008,09,16,01,58,13.50
2008,09,16,01,59,13.50
2008,09,16,02,00,13.50
2008,09,16,02,01,13.50
2008,09,16,02,02,13.50
2008,09,16,02,03,13.40
2008,09,16,02,04,13.40
2008,09,16,02,05,13.40
2008,09,16,02,06,13.40
2008,09,16,02,07,13.40
2008,09,16,02,08,13.30
2008,09,16,02,09,13.30
2008,09,16,02,10,13.30
2008,09,16,02,11,13.30
2008,09,16,02,12,13.20
2008,09,16,02,13,13.20
2008,09,16,02,14,13.20
2008,09,16,02,15,13.20
2008,09,16,02,16,13.10
2008,09,16,02,17,13.20
2008,09,16,02,18,13.20
2008,09,16,02,19,13.20
2008,09,16,02,20,13.20
2008,09,16,02,21,13.20
2008,09,16,02,22,13.20
2008,09,16,02,23,13.20
2008,09,16,02,24,13.20
2008,09,16,02,25,13.10
2008,09,16,02,26,13.10
2008,09,16,02,27,13.00
2008,09,16,02,28,13.00
2008,09,16,02,29,13.00
2008,09,16,02,30,12.90
2008,09,16,02,31,12.90
2008,09,16,02,32,12.90
2008,09,16,02,33,12.80
2008,09,16,02,34,12.80
2008,09,16,02,35,12.80
2008,09,16,02,36,12.80
2008,09,16,02,37,12.70
2008,09,16,02,38,12.70
2008,09,16,02,39,12.60
2008,09,16,02,40,12.60
2008,09,16,02,41,12.60
2008,09,16,02,42,12.60
2008,09,16,02,43,12.60
2008,09,16,02,44,12.50
2008,09,16,02,45,12.50
2008,09,16,02,46,12.50
2008,09,16,02,47,12.40
2008,09,16,02,48,12.40
2008,09,16,02,49,12.40
2008,09,16,02,50,12.30
2008,09,16,02,51,12.30
2008,09,16,02,52,12.30
2008,09,16,02,53,12.30
2008,09,16,02,54,12.30
2008,09,16,02,55,12.30
2008,09,16,02,56,12.30
2008,09,16,02,57,12.30
2008,09,16,02,58,12.30
2008,09,16,02,59,12.30
2008,09,16,03,00,12.30
2008,09,16,03,01,12.30
2008,09,16,03,02,12.30
2008,09,16,03,03,12.30
2008,09,16,03,04,12.30
2008,09,16,03,05,12.30
2008,09,16,03,06,12.30
2008,09,16,03,07,12.30
2008,09,16,03,08,12.30
2008,09,16,03,09,12.30
2008,09,16,03,10,12.30
2008,09,16,03,11,12.30
2008,09,16,03,12,12.30
2008,09,16,03,13,12.20
2008,09,16,03,14,12.20
2008,09,16,03,15,12.20
2008,09,16,03,16,12.10
2008,09,16,03,17,12.10
2008,09,16,03,18,12.10
2008,09,16,03,19,12.00
2008,09,16,03,20,12.00
2008,09,16,03,21,12.00
2008,09,16,03,22,11.90
2008,09,16,03,23,11.90
2008,09,16,03,24,12.00
2008,09,16,03,25,12.00
2008,09,16,03,26,11.90
2008,09,16,03,27,11.90
2008,09,16,03,28,11.90
2008,09,16,03,29,11.90
2008,09,16,03,30,11.90
2008,09,16,03,31,11.90
2008,09,16,03,32,11.90
2008,09,16,03,33,11.90
2008,09,16,03,34,11.90
2008,09,16,03,35,11.80
2008,09,16,03,36,11.80
2008,09,16,03,37,11.80
2008,09,16,03,38,11.80
2008,09,16,03,39,11.80
2008,09,16,03,40,11.80
2008,09,16,03,41,11.70
2008,09,16,03,42,11.70
2008,09,16,03,43,11.70
2008,09,16,03,44,11.60
2008,09,16,03,45,11.60
2008,09,16,03,46,11.60
2008,09,16,03,47,11.60
2008,09,16,03,48,11.60
2008,09,16,03,49,11.40
2008,09,16,03,50,11.40
2008,09,16,03,51,11.40
2008,09,16,03,52,11.40
2008,09,16,03,53,11.40
2008,09,16,03,54,11.40
2008,09,16,03,55,11.40
2008,09,16,03,56,11.40
2008,09,16,03,57,11.40
2008,09,16,03,58,11.40
2008,09,16,03,59,11.40
2008,09,16,04,00,11.40
2008,09,16,04,01,11.40
2008,09,16,04,02,11.40
2008,09,16,04,03,11.40
2008,09,16,04,04,11.40
2008,09,16,04,05,11.40
2008,09,16,04,06,11.40
2008,09,16,04,07,11.40
2008,09,16,04,08,11.40
2008,09,16,04,09,11.40
2008,09,16,04,10,11.40
2008,09,16,04,11,11.40
2008,09,16,04,12,11.40
2008,09,16,04,13,11.40
2008,09,16,04,14,11.40
2008,09,16,04,15,11.40
2008,09,16,04,16,11.30
2008,09,16,04,17,11.30
2008,09,16,04,18,11.30
2008,09,16,04,19,11.30
2008,09,16,04,20,11.30
2008,09,16,04,21,11.30
2008,09,16,04,22,11.30
2008,09,16,04,23,11.30
2008,09,16,04,24,11.30
2008,09,16,04,25,11.30
2008,09,16,04,26,11.30
2008,09,16,04,27,11.30
2008,09,16,04,28,11.30
2008,09,16,04,29,11.30
2008,09,16,04,30,11.30
2008,09,16,04,31,11.30
2008,09,16,04,32,11.30
2008,09,16,04,33,11.20
2008,09,16,04,34,11.20
2008,09,16,04,35,11.20
2008,09,16,04,36,11.20
2008,09,16,04,37,11.10
2008,09,16,04,38,11.10
2008,09,16,04,39,11.10
2008,09,16,04,40,11.10
2008,09,16,04,41,11.10
2008,09,16,04,42,11.20
2008,09,16,04,43,11.20
2008,09,16,04,44,11.20
2008,09,16,04,45,11.30
2008,09,16,04,46,11.30
2008,09,16,04,47,11.30
2008,09,16,04,48,11.40
2008,09,16,04,49,11.40
2008,09,16,04,50,11.40
2008,09,16,04,51,11.40
2008,09,16,04,52,11.40
2008,09,16,04,53,11.40
2008,09,16,04,54,11.30
2008,09,16,04,55,11.30
2008,09,16,04,56,11.40
2008,09,16,04,57,11.40
2008,09,16,04,58,11.40
2008,09,16,04,59,11.40
2008,09,16,05,00,11.40
2008,09,16,05,01,11.40
2008,09,16,05,02,11.40
2008,09,16,05,03,11.40
2008,09,16,05,04,11.40
2008,09,16,05,05,11.40
2008,09,16,05,06,11.40
2008,09,16,05,07,11.40
2008,09,16,05,08,11.40
2008,09,16,05,09,11.40
2008,09,16,05,10,11.40
2008,09,16,05,11,11.40
2008,09,16,05,12,11.40
2008,09,16,05,13,11.40
2008,09,16,05,14,11.40
2008,09,16,05,15,11.50
2008,09,16,05,16,11.50
2008,09,16,05,17,11.50
2008,09,16,05,18,11.60
2008,09,16,05,19,11.60
2008,09,16,05,20,11.60
2008,09,16,05,21,11.60
2008,09,16,05,22,11.70
2008,09,16,05,23,11.70
2008,09,16,05,24,11.80
2008,09,16,05,25,11.80
2008,09,16,05,26,11.80
2008,09,16,05,27,11.80
2008,09,16,05,28,11.80
2008,09,16,05,29,11.80
2008,09,16,05,30,11.80
2008,09,16,05,31,11.80
2008,09,16,05,32,11.80
2008,09,16,05,33,11.80
2008,09,16,05,34,11.80
2008,09,16,05,35,11.80
2008,09,16,05,36,11.70
2008,09,16,05,37,11.70
2008,09,16,05,38,11.60
2008,09,16,05,39,11.60
2008,09,16,05,40,11.60
2008,09,16,05,41,11.60
2008,09,16,05,42,11.60
2008,09,16,05,43,11.60
2008,09,16,05,44,11.60
2008,09,16,05,45,11.60
2008,09,16,05,46,11.60
2008,09,16,05,47,11.60
2008,09,16,05,48,11.60
2008,09,16,05,49,11.60
2008,09,16,05,50,11.60
2008,09,16,05,51,11.60
2008,09,16,05,52,11.50
2008,09,16,05,53,11.40
2008,09,16,05,54,11.40
2008,09,16,05,55,11.40
2008,09,16,05,56,11.40
2008,09,16,05,57,11.60
2008,09,16,05,58,11.60
2008,09,16,05,59,11.60
2008,09,16,06,00,11.60
2008,09,16,06,01,11.70
2008,09,16,06,02,11.70
2008,09,16,06,03,11.80
2008,09,16,06,04,11.80
2008,09,16,06,05,11.80
2008,09,16,06,06,11.80
2008,09,16,06,07,11.80
2008,09,16,06,08,11.80
2008,09,16,06,09,11.80
2008,09,16,06,10,11.80
2008,09,16,06,11,11.80
2008,09,16,06,12,11.80
2008,09,16,06,13,11.80
2008,09,16,06,14,11.80
2008,09,16,06,15,11.80
2008,09,16,06,16,11.80
2008,09,16,06,17,11.70
2008,09,16,06,18,11.70
2008,09,16,06,19,11.60
2008,09,16,06,20,11.60
2008,09,16,06,21,11.60
2008,09,16,06,22,11.60
2008,09,16,06,23,11.60
2008,09,16,06,24,11.60
2008,09,16,06,25,11.60
2008,09,16,06,26,11.60
2008,09,16,06,27,11.60
2008,09,16,06,28,11.60
2008,09,16,06,29,11.60
2008,09,16,06,30,11.60
2008,09,16,06,31,11.50
2008,09,16,06,32,11.40
2008,09,16,06,33,11.40
2008,09,16,06,34,11.40
2008,09,16,06,35,11.40
2008,09,16,06,36,11.40
2008,09,16,06,37,11.40
2008,09,16,06,38,11.40
2008,09,16,06,39,11.30
2008,09,16,06,40,11.30
2008,09,16,06,41,11.30
2008,09,16,06,42,11.30
2008,09,16,06,43,11.30
2008,09,16,06,44,11.30
2008,09,16,06,45,11.40
2008,09,16,06,46,11.40
2008,09,16,06,47,11.40
2008,09,16,06,48,11.40
2008,09,16,06,49,11.40
2008,09,16,06,50,11.40
2008,09,16,06,51,11.40
2008,09,16,06,52,11.40
2008,09,16,06,53,11.40
2008,09,16,06,54,11.60
2008,09,16,06,55,11.60
2008,09,16,06,56,11.60
2008,09,16,06,57,11.60
2008,09,16,06,58,11.70
2008,09,16,06,59,11.80
2008,09,16,07,00,11.90
2008,09,16,07,01,12.00
2008,09,16,07,02,12.10
2008,09,16,07,03,12.20
2008,09,16,07,04,12.20
2008,09,16,07,05,12.30
2008,09,16,07,06,12.30
2008,09,16,07,07,12.30
2008,09,16,07,08,12.30
2008,09,16,07,09,12.30
2008,09,16,07,10,12.30
2008,09,16,07,11,12.30
2008,09,16,07,12,12.40
2008,09,16,07,13,12.40
2008,09,16,07,14,12.40
2008,09,16,07,15,12.40
2008,09,16,07,16,12.50
2008,09,16,07,17,12.50
2008,09,16,07,18,12.50
2008,09,16,07,19,12.50
2008,09,16,07,20,12.50
2008,09,16,07,21,12.60
2008,09,16,07,22,12.60
2008,09,16,07,23,12.60
2008,09,16,07,24,12.60
2008,09,16,07,25,12.70
2008,09,16,07,26,12.70
2008,09,16,07,27,12.70
2008,09,16,07,28,12.70
2008,09,16,07,29,12.80
2008,09,16,07,30,12.80
2008,09,16,07,31,12.80
2008,09,16,07,32,12.80
2008,09,16,07,33,12.80
2008,09,16,07,34,12.80
2008,09,16,07,35,12.80
2008,09,16,07,36,12.90
2008,09,16,07,37,12.90
2008,09,16,07,38,12.90
2008,09,16,07,39,12.90
2008,09,16,07,40,12.90
2008,09,16,07,41,12.90
2008,09,16,07,42,13.00
2008,09,16,07,43,13.00
2008,09,16,07,44,13.00
2008,09,16,07,45,13.00
2008,09,16,07,46,13.00
2008,09,16,07,47,13.10
2008,09,16,07,48,13.10
2008,09,16,07,49,13.20
2008,09,16,07,50,13.20
2008,09,16,07,51,13.20
2008,09,16,07,52,13.20
2008,09,16,07,53,13.30
2008,09,16,07,54,13.30
2008,09,16,07,55,13.30
2008,09,16,07,56,13.30
2008,09,16,07,57,13.40
2008,09,16,07,58,13.40
2008,09,16,07,59,13.50
2008,09,16,08,00,13.50
2008,09,16,08,01,13.60
2008,09,16,08,02,13.60
2008,09,16,08,03,13.70
2008,09,16,08,04,13.70
2008,09,16,08,05,13.80
2008,09,16,08,06,13.80
2008,09,16,08,07,13.90
2008,09,16,08,08,13.90
2008,09,16,08,09,14.00
2008,09,16,08,10,14.00
2008,09,16,08,11,14.00
2008,09,16,08,12,14.00
2008,09,16,08,13,14.10
2008,09,16,08,14,14.10
2008,09,16,08,15,14.10
2008,09,16,08,16,14.10
2008,09,16,08,17,14.10
2008,09,16,08,18,14.20
2008,09,16,08,19,14.20
2008,09,16,08,20,14.20
2008,09,16,08,21,14.20
2008,09,16,08,22,14.20
2008,09,16,08,23,14.30
2008,09,16,08,24,14.30
2008,09,16,08,25,14.40
2008,09,16,08,26,14.40
2008,09,16,08,27,14.50
2008,09,16,08,28,14.50
2008,09,16,08,29,14.60
2008,09,16,08,30,14.70
2008,09,16,08,31,14.80
2008,09,16,08,32,14.80
2008,09,16,08,33,14.90
2008,09,16,08,34,15.00
2008,09,16,08,35,15.10
2008,09,16,08,36,15.30
2008,09,16,08,37,15.40
2008,09,16,08,38,15.50
2008,09,16,08,39,15.60
2008,09,16,08,40,15.70
2008,09,16,08,41,15.80
2008,09,16,08,42,15.80
2008,09,16,08,43,15.90
2008,09,16,08,44,16.00
2008,09,16,08,45,16.10
2008,09,16,08,46,16.10
2008,09,16,08,47,16.20
2008,09,16,08,48,16.20
2008,09,16,08,49,16.30
2008,09,16,08,50,16.30
2008,09,16,08,51,16.40
2008,09,16,08,52,16.40
2008,09,16,08,53,16.50
2008,09,16,08,54,16.60
2008,09,16,08,55,16.60
2008,09,16,08,56,16.70
2008,09,16,08,57,16.70
2008,09,16,08,58,16.70
2008,09,16,08,59,16.70
2008,09,16,09,00,16.80
2008,09,16,09,01,16.90
2008,09,16,09,02,16.90
2008,09,16,09,03,17.00
2008,09,16,09,04,17.00
2008,09,16,09,05,17.10
2008,09,16,09,06,17.20
2008,09,16,09,07,17.30
2008,09,16,09,08,17.30
2008,09,16,09,09,17.30
2008,09,16,09,10,17.30
2008,09,16,09,11,17.30
2008,09,16,09,12,17.30
2008,09,16,09,13,17.30
2008,09,16,09,14,17.30
2008,09,16,09,15,17.30
2008,09,16,09,16,17.30
2008,09,16,09,17,17.40
2008,09,16,09,18,17.40
2008,09,16,09,19,17.40
2008,09,16,09,20,17.50
2008,09,16,09,21,17.50
2008,09,16,09,22,17.50
2008,09,16,09,23,17.60
2008,09,16,09,24,17.60
2008,09,16,09,25,17.60
2008,09,16,09,26,17.60
2008,09,16,09,27,17.70
2008,09,16,09,28,17.70
2008,09,16,09,29,17.70
2008,09,16,09,30,17.70
2008,09,16,09,31,17.70
2008,09,16,09,32,17.80
2008,09,16,09,33,17.80
2008,09,16,09,34,17.80
2008,09,16,09,35,17.90
2008,09,16,09,36,17.90
2008,09,16,09,37,17.90
2008,09,16,09,38,17.90
2008,09,16,09,39,17.90
2008,09,16,09,40,17.90
2008,09,16,09,41,17.90
2008,09,16,09,42,17.90
2008,09,16,09,43,17.90
2008,09,16,09,44,17.90
2008,09,16,09,45,17.90
2008,09,16,09,46,17.90
2008,09,16,09,47,18.00
2008,09,16,09,48,18.10
2008,09,16,09,49,18.10
2008,09,16,09,50,18.10
2008,09,16,09,51,18.10
2008,09,16,09,52,18.10
2008,09,16,09,53,18.20
2008,09,16,09,54,18.20
2008,09,16,09,55,18.20
2008,09,16,09,56,18.20
2008,09,16,09,57,18.20
2008,09,16,09,58,18.20
2008,09,16,09,59,18.20
2008,09,16,10,00,18.20
2008,09,16,10,01,18.30
2008,09,16,10,02,18.40
2008,09,16,10,03,18.40
2008,09,16,10,04,18.40
2008,09,16,10,05,18.50
2008,09,16,10,06,18.50
2008,09,16,10,07,18.50
2008,09,16,10,08,18.60
2008,09,16,10,09,18.60
2008,09,16,10,10,18.60
2008,09,16,10,11,18.50
2008,09,16,10,12,18.60
2008,09,16,10,13,18.60
2008,09,16,10,14,18.60
2008,09,16,10,15,18.50
2008,09,16,10,16,18.50
2008,09,16,10,17,18.60
2008,09,16,10,18,18.60
2008,09,16,10,19,18.60
2008,09,16,10,20,18.60
2008,09,16,10,21,18.70
2008,09,16,10,22,18.70
2008,09,16,10,23,18.70
2008,09,16,10,24,18.80
2008,09,16,10,25,18.80
2008,09,16,10,26,18.90
2008,09,16,10,27,18.90
2008,09,16,10,28,19.00
2008,09,16,10,29,19.10
2008,09,16,10,30,19.10
2008,09,16,10,31,19.10
2008,09,16,10,32,19.10
2008,09,16,10,33,19.10
2008,09,16,10,34,19.10
2008,09,16,10,35,19.10
2008,09,16,10,36,19.10
2008,09,16,10,37,19.10
2008,09,16,10,38,19.10
2008,09,16,10,39,19.10
2008,09,16,10,40,19.10
2008,09,16,10,41,19.10
2008,09,16,10,42,19.10
2008,09,16,10,43,19.10
2008,09,16,10,44,19.10
2008,09,16,10,45,19.10
2008,09,16,10,46,19.10
2008,09,16,10,47,19.20
2008,09,16,10,48,19.20
2008,09,16,10,49,19.20
2008,09,16,10,50,19.20
2008,09,16,10,51,19.20
2008,09,16,10,52,19.30
2008,09,16,10,53,19.30
2008,09,16,10,54,19.30
2008,09,16,10,55,19.40
2008,09,16,10,56,19.40
2008,09,16,10,57,19.40
2008,09,16,10,58,19.40
2008,09,16,10,59,19.40
2008,09,16,11,00,19.40
2008,09,16,11,01,19.30
2008,09,16,11,02,19.30
2008,09,16,11,03,19.20
2008,09,16,11,04,19.10
2008,09,16,11,05,19.10
2008,09,16,11,06,19.10
2008,09,16,11,07,19.20
2008,09,16,11,08,19.20
2008,09,16,11,09,19.30
2008,09,16,11,10,19.30
2008,09,16,11,11,19.40
2008,09,16,11,12,19.50
2008,09,16,11,13,19.60
2008,09,16,11,14,19.60
2008,09,16,11,15,19.70
2008,09,16,11,16,19.60
2008,09,16,11,17,19.60
2008,09,16,11,18,19.60
2008,09,16,11,19,19.50
2008,09,16,11,20,19.50
2008,09,16,11,21,19.50
2008,09,16,11,22,19.50
2008,09,16,11,23,19.50
2008,09,16,11,24,19.60
2008,09,16,11,25,19.60
2008,09,16,11,26,19.70
2008,09,16,11,27,19.80
2008,09,16,11,28,19.90
2008,09,16,11,29,19.90
2008,09,16,11,30,19.90
2008,09,16,11,31,19.90
2008,09,16,11,32,19.90
2008,09,16,11,33,19.90
2008,09,16,11,34,20.00
2008,09,16,11,35,20.00
2008,09,16,11,36,20.10
2008,09,16,11,37,20.10
2008,09,16,11,38,20.10
2008,09,16,11,39,20.20
2008,09,16,11,40,20.20
2008,09,16,11,41,20.20
2008,09,16,11,42,20.20
2008,09,16,11,43,20.30
2008,09,16,11,44,20.30
2008,09,16,11,45,20.40
2008,09,16,11,46,20.40
2008,09,16,11,47,20.40
2008,09,16,11,48,20.40
2008,09,16,11,49,20.40
2008,09,16,11,50,20.50
2008,09,16,11,51,20.40
2008,09,16,11,52,20.50
2008,09,16,11,53,20.50
2008,09,16,11,54,20.40
2008,09,16,11,55,20.40
2008,09,16,11,56,20.50
2008,09,16,11,57,20.50
2008,09,16,11,58,20.60
2008,09,16,11,59,20.60
2008,09,16,12,00,20.70
2008,09,16,12,01,20.70
2008,09,16,12,02,20.70
2008,09,16,12,03,20.70
2008,09,16,12,04,20.70
2008,09,16,12,05,20.60
2008,09,16,12,06,20.50
2008,09,16,12,07,20.50
2008,09,16,12,08,20.50
2008,09,16,12,09,20.60
2008,09,16,12,10,20.70
2008,09,16,12,11,20.80
2008,09,16,12,12,20.90
2008,09,16,12,13,21.00
2008,09,16,12,14,21.00
2008,09,16,12,15,21.10
2008,09,16,12,16,21.20
2008,09,16,12,17,21.20
2008,09,16,12,18,21.30
2008,09,16,12,19,21.20
2008,09,16,12,20,21.20
2008,09,16,12,21,21.20
2008,09,16,12,22,21.20
2008,09,16,12,23,21.30
2008,09,16,12,24,21.30
2008,09,16,12,25,21.30
2008,09,16,12,26,21.30
2008,09,16,12,27,21.30
2008,09,16,12,28,21.20
2008,09,16,12,29,21.20
2008,09,16,12,30,21.30
2008,09,16,12,31,21.30
2008,09,16,12,32,21.30
2008,09,16,12,33,21.30
2008,09,16,12,34,21.40
2008,09,16,12,35,21.50
2008,09,16,12,36,21.60
2008,09,16,12,37,21.60
2008,09,16,12,38,21.70
2008,09,16,12,39,21.70
2008,09,16,12,40,21.80
2008,09,16,12,41,21.90
2008,09,16,12,42,21.90
2008,09,16,12,43,22.00
2008,09,16,12,44,22.00
2008,09,16,12,45,21.90
2008,09,16,12,46,21.80
2008,09,16,12,47,21.90
2008,09,16,12,48,21.80
2008,09,16,12,49,21.70
2008,09,16,12,50,21.70
2008,09,16,12,51,21.70
2008,09,16,12,52,21.70
2008,09,16,12,53,21.80
2008,09,16,12,54,21.90
2008,09,16,12,55,22.00
2008,09,16,12,56,22.10
2008,09,16,12,57,22.10
2008,09,16,12,58,22.10
2008,09,16,12,59,22.10
2008,09,16,13,00,22.10
2008,09,16,13,01,22.10
2008,09,16,13,02,22.00
2008,09,16,13,03,22.00
2008,09,16,13,04,22.10
2008,09,16,13,05,22.10
2008,09,16,13,06,22.20
2008,09,16,13,07,22.30
2008,09,16,13,08,22.30
2008,09,16,13,09,22.20
2008,09,16,13,10,22.10
2008,09,16,13,11,22.00
2008,09,16,13,12,21.90
2008,09,16,13,13,22.00
2008,09,16,13,14,22.10
2008,09,16,13,15,22.20
2008,09,16,13,16,22.20
2008,09,16,13,17,22.20
2008,09,16,13,18,22.20
2008,09,16,13,19,22.30
2008,09,16,13,20,22.30
2008,09,16,13,21,22.30
2008,09,16,13,22,22.40
2008,09,16,13,23,22.50
2008,09,16,13,24,22.40
2008,09,16,13,25,22.30
2008,09,16,13,26,22.30
2008,09,16,13,27,22.30
2008,09,16,13,28,22.30
2008,09,16,13,29,22.40
2008,09,16,13,30,22.40
2008,09,16,13,31,22.60
2008,09,16,13,32,22.60
2008,09,16,13,33,22.70
2008,09,16,13,34,22.80
2008,09,16,13,35,22.80
2008,09,16,13,36,22.80
2008,09,16,13,37,22.80
2008,09,16,13,38,22.80
2008,09,16,13,39,22.70
2008,09,16,13,40,22.60
2008,09,16,13,41,22.60
2008,09,16,13,42,22.70
2008,09,16,13,43,22.80
2008,09,16,13,44,22.80
2008,09,16,13,45,22.70
2008,09,16,13,46,22.60
2008,09,16,13,47,22.60
2008,09,16,13,48,22.60
2008,09,16,13,49,22.50
2008,09,16,13,50,22.50
2008,09,16,13,51,22.60
2008,09,16,13,52,22.60
2008,09,16,13,53,22.60
2008,09,16,13,54,22.70
2008,09,16,13,55,22.70
2008,09,16,13,56,22.70
2008,09,16,13,57,22.70
2008,09,16,13,58,22.80
2008,09,16,13,59,22.80
2008,09,16,14,00,22.80
2008,09,16,14,01,22.70
2008,09,16,14,02,22.70
2008,09,16,14,03,22.60
2008,09,16,14,04,22.50
2008,09,16,14,05,22.60
2008,09,16,14,06,22.60
2008,09,16,14,07,22.60
2008,09,16,14,08,22.70
2008,09,16,14,09,22.70
2008,09,16,14,10,22.70
2008,09,16,14,11,22.70
2008,09,16,14,12,22.70
2008,09,16,14,13,22.70
2008,09,16,14,14,22.70
2008,09,16,14,15,22.80
2008,09,16,14,16,22.90
2008,09,16,14,17,22.80
2008,09,16,14,18,22.80
2008,09,16,14,19,22.90
2008,09,16,14,20,22.90
2008,09,16,14,21,23.00
2008,09,16,14,22,23.10
2008,09,16,14,23,23.10
2008,09,16,14,24,23.20
2008,09,16,14,25,23.30
2008,09,16,14,26,23.30
2008,09,16,14,27,23.50
2008,09,16,14,28,23.50
2008,09,16,14,29,23.40
2008,09,16,14,30,23.30
2008,09,16,14,31,23.30
2008,09,16,14,32,23.30
2008,09,16,14,33,23.30
2008,09,16,14,34,23.30
2008,09,16,14,35,23.30
2008,09,16,14,36,23.30
2008,09,16,14,37,23.30
2008,09,16,14,38,23.30
2008,09,16,14,39,23.40
2008,09,16,14,40,23.40
2008,09,16,14,41,23.40
2008,09,16,14,42,23.50
2008,09,16,14,43,23.60
2008,09,16,14,44,23.70
2008,09,16,14,45,23.70
2008,09,16,14,46,23.70
2008,09,16,14,47,23.70
2008,09,16,14,48,23.70
2008,09,16,14,49,23.70
2008,09,16,14,50,23.60
2008,09,16,14,51,23.60
2008,09,16,14,52,23.60
2008,09,16,14,53,23.60
2008,09,16,14,54,23.60
2008,09,16,14,55,23.60
2008,09,16,14,56,23.70
2008,09,16,14,57,23.70
2008,09,16,14,58,23.60
2008,09,16,14,59,23.50
2008,09,16,15,00,23.40
2008,09,16,15,01,23.40
2008,09,16,15,02,23.50
2008,09,16,15,03,23.60
2008,09,16,15,04,23.70
2008,09,16,15,05,23.70
2008,09,16,15,06,23.70
2008,09,16,15,07,23.70
2008,09,16,15,08,23.70
2008,09,16,15,09,23.70
2008,09,16,15,10,23.80
2008,09,16,15,11,23.80
2008,09,16,15,12,23.80
2008,09,16,15,13,23.80
2008,09,16,15,14,23.90
2008,09,16,15,15,23.90
2008,09,16,15,16,23.90
2008,09,16,15,17,23.80
2008,09,16,15,18,23.80
2008,09,16,15,19,23.90
2008,09,16,15,20,24.00
2008,09,16,15,21,24.10
2008,09,16,15,22,24.00
2008,09,16,15,23,23.80
2008,09,16,15,24,23.80
2008,09,16,15,25,23.80
2008,09,16,15,26,23.80
2008,09,16,15,27,23.90
2008,09,16,15,28,23.90
2008,09,16,15,29,23.90
2008,09,16,15,30,23.90
2008,09,16,15,31,23.90
2008,09,16,15,32,23.90
2008,09,16,15,33,23.90
2008,09,16,15,34,23.90
2008,09,16,15,35,23.80
2008,09,16,15,36,23.90
2008,09,16,15,37,23.90
2008,09,16,15,38,23.90
2008,09,16,15,39,24.00
2008,09,16,15,40,24.10
2008,09,16,15,41,24.10
2008,09,16,15,42,24.20
2008,09,16,15,43,24.30
2008,09,16,15,44,24.30
2008,09,16,15,45,24.30
2008,09,16,15,46,24.30
2008,09,16,15,47,24.30
2008,09,16,15,48,24.20
2008,09,16,15,49,24.20
2008,09,16,15,50,24.20
2008,09,16,15,51,24.10
2008,09,16,15,52,24.10
2008,09,16,15,53,24.10
2008,09,16,15,54,24.10
2008,09,16,15,55,24.20
2008,09,16,15,56,24.10
2008,09,16,15,57,24.10
2008,09,16,15,58,24.20
2008,09,16,15,59,24.20
2008,09,16,16,00,24.20
2008,09,16,16,01,24.20
2008,09,16,16,02,24.20
2008,09,16,16,03,24.20
2008,09,16,16,04,24.20
2008,09,16,16,05,24.10
2008,09,16,16,06,24.10
2008,09,16,16,07,24.10
2008,09,16,16,08,24.20
2008,09,16,16,09,24.30
2008,09,16,16,10,24.40
2008,09,16,16,11,24.40
2008,09,16,16,12,24.50
2008,09,16,16,13,24.50
2008,09,16,16,14,24.50
2008,09,16,16,15,24.50
2008,09,16,16,16,24.50
2008,09,16,16,17,24.40
2008,09,16,16,18,24.40
2008,09,16,16,19,24.30
2008,09,16,16,20,24.40
2008,09,16,16,21,24.40
2008,09,16,16,22,24.50
2008,09,16,16,23,24.50
2008,09,16,16,24,24.60
2008,09,16,16,25,24.60
2008,09,16,16,26,24.60
2008,09,16,16,27,24.50
2008,09,16,16,28,24.50
2008,09,16,16,29,24.40
2008,09,16,16,30,24.40
2008,09,16,16,31,24.40
2008,09,16,16,32,24.30
2008,09,16,16,33,24.30
2008,09,16,16,34,24.30
2008,09,16,16,35,24.40
2008,09,16,16,36,24.40
2008,09,16,16,37,24.30
2008,09,16,16,38,24.30
2008,09,16,16,39,24.30
2008,09,16,16,40,24.30
2008,09,16,16,41,24.30
2008,09,16,16,42,24.30
2008,09,16,16,43,24.30
2008,09,16,16,44,24.30
2008,09,16,16,45,24.40
2008,09,16,16,46,24.40
2008,09,16,16,47,24.30
2008,09,16,16,48,24.30
2008,09,16,16,49,24.30
2008,09,16,16,50,24.30
2008,09,16,16,51,24.30
2008,09,16,16,52,24.30
2008,09,16,16,53,24.30
2008,09,16,16,54,24.20
2008,09,16,16,55,24.20
2008,09,16,16,56,24.10
2008,09,16,16,57,24.10
2008,09,16,16,58,24.10
2008,09,16,16,59,24.10
2008,09,16,17,00,24.20
2008,09,16,17,01,24.20
2008,09,16,17,02,24.10
2008,09,16,17,03,24.10
2008,09,16,17,04,24.10
2008,09,16,17,05,24.10
2008,09,16,17,06,24.10
2008,09,16,17,07,24.10
2008,09,16,17,08,24.10
2008,09,16,17,09,24.10
2008,09,16,17,10,24.10
2008,09,16,17,11,24.10
2008,09,16,17,12,24.10
2008,09,16,17,13,24.10
2008,09,16,17,14,24.10
2008,09,16,17,15,24.10
2008,09,16,17,16,24.20
2008,09,16,17,17,24.10
2008,09,16,17,18,24.10
2008,09,16,17,19,24.20